Location: Bucquoy
(50.1391°N, 2.7097°E)
Time: 08:05:31
(UTC+00:00)

CZ-4B R/B - Pass Details

Date: 06 May 2021
Orbit: 703 x 802 km, 98.9° (Epoch: 21 June)

Event Time Altitude Azimuth Distance (km) Brightness Sun altitude
Rises 03:34:04 0° 12° (NNE) 3,141 7.5 -6.6°
Reaches altitude 10° 03:36:21 10° 8° (N) 2,228 6.6 -6.3°
Maximum altitude 03:41:07 56° 291° (WNW) 880 3.7 -5.7°
Drops below altitude 10° 03:45:59 10° 214° (SW) 2,271 5.4 -5.0°
Enters shadow 03:47:40 - 211° (SSW) 2,938 6.0 -4.8°
